Home   Weather   Surat   Past weeks

Flag for India Past Weather in Surat, Gujarat, India — Yesterday and Last 2 Weeks

Now
73 °F

Clear.


Feels Like: 77 °F
Forecast: 72 / 96 °F
Wind: No wind

Location: Ahmadabad Airport

Current Time: Feb 28, 2017 at 12:24:35 am

Latest Report: Feb 28, 2017 at 12:00 am


Visibility: 2 mi

Pressure: 29.92 "Hg

Humidity: 50%

Dew Point: 54 °F

Location of SuratLocation

Past Weather in Surat — Graph

°F

Surat Temperature Yesterday

Maximum temperature yesterday: 100 °F (at 5:00 pm)
Minimum temperature yesterday: 63 °F (at 5:30 am)
Average temperature yesterday: 82 °F

High & Low Weather Summary for the Past Weeks

 TemperatureHumidityPressure
High100 °F (Feb 27, 5:00 pm)88% (Feb 22, 3:00 am)30.15 "Hg (Feb 22, 3:00 am)
Low59 °F (Feb 24, 6:00 am)11% (Feb 25, 3:00 pm)29.74 "Hg (Feb 20, 4:00 pm)
Average79 °F41%29.97 "Hg
* Reported Feb 12 10:30 pm — Feb 27 11:00 pm, Surat, Weather by CustomWeather, © 2017

Note: Actual official high and low records may vary slightly from our data, if they occured in-between our weather recording intervals... More about our weather records

Advertising

Surat Weather History for the Previous 24 Hours

Scroll right to see more
 ConditionsComfort  
Time TempWeatherWind HumidityBarometerVisibility
11:00 pm
Mon, Feb 27
73 °FClear.No wind47%29.92 "Hg2 mi
10:30 pm79 °FClear.No wind32%29.92 "Hg2 mi
10:00 pm81 °FClear.No wind32%29.92 "Hg2 mi
9:30 pm82 °FClear.No wind28%29.92 "Hg2 mi
9:00 pm82 °FClear.No wind30%29.92 "Hg2 mi
8:30 pm84 °FClear.No wind27%29.89 "Hg2 mi
8:00 pm84 °FClear.No wind27%29.89 "Hg2 mi
7:30 pm84 °FClear.6 mph33%29.89 "Hg2 mi
7:00 pm88 °FClear.No wind21%29.86 "Hg2 mi
6:30 pm91 °FClear.No wind18%29.86 "Hg3 mi
6:00 pm95 °FClear.No wind16%29.86 "Hg4 mi
5:30 pm97 °FClear.No wind16%29.83 "Hg5 mi
5:00 pm100 °FClear.No wind13%29.83 "Hg5 mi
4:30 pm97 °FClear.5 mph13%29.83 "Hg5 mi
4:00 pm97 °FClear.3 mph13%29.86 "Hg5 mi
3:30 pm97 °FClear.5 mph13%29.86 "Hg5 mi
3:00 pm97 °FClear.3 mph14%29.86 "Hg5 mi
2:30 pm95 °FClear.5 mph16%29.89 "Hg5 mi
2:00 pm95 °FClear.3 mph15%29.89 "Hg5 mi
1:30 pm95 °FClear.3 mph18%29.92 "Hg4 mi
1:00 pm95 °FClear.3 mph20%29.92 "Hg4 mi
12:30 pm93 °FClear.3 mph21%29.95 "Hg4 mi
12:00 pm93 °FClear.3 mph21%29.95 "Hg3 mi
11:30 am91 °FClear.3 mph23%29.98 "Hg3 mi
11:00 am88 °FClear.5 mph25%29.98 "Hg3 mi
10:30 am86 °FClear.3 mph27%29.98 "Hg3 mi
10:00 am82 °FClear.No wind30%29.98 "Hg2 mi
9:30 am79 °FClear.No wind34%29.98 "Hg2 mi
9:00 am77 °FClear.3 mph36%29.98 "Hg2 mi
8:30 am77 °FClear.No wind36%29.95 "Hg2 mi
8:00 am72 °FClear.3 mph44%29.95 "Hg2 mi
7:30 am68 °FClear.3 mph49%29.92 "Hg2 mi
7:00 am70 °FClear.5 mph46%29.92 "Hg2 mi
6:00 am68 °FHaze.3 mph49%29.89 "Hg2 mi
5:30 am63 °FHaze.No wind73%29.86 "Hg2 mi
5:00 am64 °FHaze.No wind68%29.86 "Hg2 mi
4:30 am70 °FClear.No wind46%29.86 "Hg2 mi
4:00 am70 °FClear.No wind46%29.86 "Hg2 mi
3:30 am72 °FClear.No wind44%29.86 "Hg2 mi
3:00 am72 °FClear.No wind44%29.86 "Hg2 mi
2:30 am70 °FClear.No wind50%29.86 "Hg2 mi
2:00 am70 °FClear.No wind53%29.86 "Hg2 mi
1:30 am72 °FClear.No wind53%29.89 "Hg2 mi
12:30 am73 °FClear.No wind44%29.89 "Hg2 mi
12:00 am73 °FClear.No wind47%29.89 "Hg2 mi
Weather by CustomWeather, © 2017

See weather overviewHow to use our weather pages